Location: Oklahoma City
(35.4680°N, 97.5160°W)
Time: 22:17:03
(UTC-06:00)

ISS - All Passes

Search period start: 28 January 2015 00:00
Search period end: 07 February 2015 00:00
Orbit: 402 x 410 km, 51.6° (Epoch: 28 January)

Date Brightness Start Highest point End Pass type
(mag) Time Alt. Az. Time Alt. Az. Time Alt. Az.
28 Jan - 05:17:24 10° NW 05:20:34 41° NE 05:23:43 10° ESE visible
28 Jan - 06:54:47 10° W 06:56:51 15° SW 06:58:47 10° SSW visible
28 Jan - 21:55:10 10° SW 21:58:25 72° SE 22:01:42 10° NE night (unlit)
28 Jan - 23:33:21 10° WNW 23:35:17 14° NNW 23:37:11 10° N night (unlit)
29 Jan - 04:25:53 10° NNW 04:28:37 23° NNE 04:31:22 10° E visible
29 Jan - 06:02:11 10° WNW 06:05:09 31° SW 06:08:06 10° SSE visible
29 Jan - 21:03:43 10° SSW 21:06:40 32° SE 21:09:39 10° ENE night (unlit)
29 Jan - 22:40:32 10° W 22:43:13 22° NNW 22:45:53 10° NNE night (unlit)
30 Jan - 03:34:34 10° N 03:36:33 15° NNE 03:38:34 10° ENE night (unlit)
30 Jan - 05:10:06 10° NW 05:13:23 68° SW 05:16:40 10° SE visible
30 Jan - 20:12:56 10° SSE 20:14:56 16° SE 20:17:02 10° E night (unlit)
30 Jan - 21:48:07 10° WSW 21:51:14 39° NW 21:54:21 10° NE night (unlit)
31 Jan - 02:44:08 10° NNE 02:44:23 10° NNE 02:44:42 10° NNE night (unlit)
31 Jan - 04:18:16 10° NW 04:21:32 55° NE 04:24:47 10° ESE night (unlit)
31 Jan - 05:56:33 10° WSW 05:57:44 11° SW 05:58:45 10° SW visible
31 Jan - 20:56:03 10° SW 20:59:19 83° NW 21:02:36 10° NE night (unlit)
31 Jan - 22:34:49 10° NW 22:36:18 12° NNW 22:37:43 10° N night (unlit)
01 Feb - 03:26:38 10° NNW 03:29:33 29° NE 03:32:30 10° E night (unlit)
01 Feb - 05:03:17 10° WNW 05:05:59 23° SW 05:08:38 10° S visible
01 Feb - 20:04:22 10° SSW 20:07:28 43° SE 20:10:36 10° ENE visible
01 Feb - 21:41:42 10° WNW 21:44:08 19° NNW 21:46:32 10° NNE night (unlit)
02 Feb - 02:35:10 10° NNW 02:37:28 18° NNE 02:39:50 10° ENE night (unlit)
02 Feb - 04:10:59 10° WNW 04:14:11 49° SW 04:17:22 10° SSE night (unlit)
02 Feb - 19:13:11 10° S 19:15:40 21° SE 19:18:12 10° E visible
02 Feb - 20:49:05 10° W 20:52:03 31° NW 20:55:01 10° NNE visible
03 Feb - 01:44:03 10° N 01:45:17 12° NNE 01:46:35 10° NE night (unlit)
03 Feb - 03:19:00 10° NW 03:22:17 75° NE 03:25:35 10° SE night (unlit)
03 Feb - 19:56:48 10° WSW 20:00:03 61° NW 20:03:17 10° NE visible
03 Feb - 21:36:23 10° NW 21:37:08 10° NNW 21:37:49 10° N night (unlit)
04 Feb - 02:27:12 10° NNW 02:30:18 36° NE 02:33:24 10° ESE night (unlit)
04 Feb - 04:04:19 10° W 04:06:37 17° SW 04:08:52 10° S night (unlit)
04 Feb - 19:04:53 10° SW 19:08:06 60° SE 19:11:20 10° NE visible
04 Feb - 20:42:46 10° WNW 20:44:53 16° NNW 20:46:57 10° NNE visible
05 Feb - 01:35:36 10° NNW 01:38:11 21° NNE 01:40:48 10° E night (unlit)
05 Feb - 03:11:43 10° WNW 03:14:46 36° SW 03:17:50 10° SSE night (unlit)
05 Feb - 18:13:24 10° S 18:16:12 27° SE 18:19:03 10° ENE daylight
05 Feb - 19:49:54 10° W 19:52:42 25° NNW 19:55:28 10° NNE visible
06 Feb - 00:44:14 10° N 00:45:58 14° NNE 00:47:45 10° ENE night (unlit)
06 Feb - 02:19:34 10° NW 02:22:52 81° SW 02:26:09 10° SE night (unlit)
06 Feb - 17:22:45 10° SSE 17:24:21 13° SE 17:26:04 10° E daylight
06 Feb - 18:57:26 10° WSW 19:00:35 46° NW 19:03:45 10° NE visible
